This is the latest recevied weather packets stored in our database for station/object F4ELU-13. If no packets are shown the sender has not sent any weather packets the latest 10 day(s).
| Time | Temp. | Humidity | Pressure | Rain* | Wind** | Luminosity | Snow |
|---|---|---|---|---|---|---|---|
| 1778089503 | 13.33° C | 94% | 1010.1 hPa | 0 mm | - | - | - |
| 1778088963 | 12.78° C | 95% | 1010 hPa | 0 mm | - | - | - |
| 1778088423 | 12.22° C | 97% | 1010 hPa | 0 mm | - | - | - |
| 1778087883 | 12.22° C | 98% | 1009.9 hPa | 0 mm | - | - | - |
| 1778087343 | 12.22° C | 98% | 1009.9 hPa | 0 mm | - | - | - |
| 1778086803 | 11.67° C | 98% | 1009.8 hPa | 0 mm | - | - | - |
| 1778086443 | 12.22° C | 98% | 1009.7 hPa | 0 mm | - | - | - |
| 1778085903 | 11.67° C | 98% | 1009.6 hPa | 0 mm | - | - | - |
| 1778085363 | 11.67° C | 99% | 1009.8 hPa | 0 mm | - | - | - |
| 1778084823 | 11.67° C | 99% | 1009.6 hPa | 0 mm | - | - | - |
| 1778084283 | 11.67° C | 99% | 1009.6 hPa | 0 mm | - | - | - |
| 1778083743 | 11.67° C | 99% | 1009.6 hPa | 0.25 mm | - | - | - |
| 1778083203 | 11.11° C | 99% | 1009.6 hPa | 0.25 mm | - | - | - |
| 1778082843 | 11.11° C | 99% | 1009.6 hPa | 3.3 mm | - | - | - |
| 1778082303 | 11.11° C | 99% | 1009.7 hPa | 7.11 mm | - | - | - |
| 1778081763 | 10.56° C | 99% | 1009.9 hPa | 7.87 mm | - | - | - |
| 1778081223 | 10.56° C | 99% | 1009.5 hPa | 7.87 mm | - | - | - |
| 1778080683 | 10.56° C | 99% | 1009.7 hPa | 7.87 mm | - | - | - |
| 1778080143 | 10.56° C | 98% | 1009.5 hPa | 7.62 mm | - | - | - |
| 1778079603 | 10.56° C | 97% | 1009.5 hPa | 7.62 mm | - | - | - |
| 1778079244 | 11.11° C | 95% | 1009.7 hPa | 4.57 mm | - | - | - |
| 1778078703 | 11.67° C | 92% | 1009.6 hPa | 0.51 mm | - | - | - |
| 1778078163 | 12.78° C | 85% | 1009.1 hPa | 0 mm | - | - | - |
| 1778077623 | 13.33° C | 82% | 1009.1 hPa | 0 mm | - | - | - |
| 1778077083 | 15.56° C | 76% | 1009 hPa | 0 mm | - | - | - |
* Rain latest hour (hover to see other rain measurements)
** Current wind speed in m/s (hover to see current wind gust speed)